User: anonymous   Login
Location: Ash Swamp
(41.5170°N, 74.6157°W)
Time: 08:54:20
(UTC+00:00)
Language:

Cosmos 972 Rocket - Orbit

View from above orbital plane
View from above orbital plane
View from above satellite
View from above satellite

Ground track
Ground track

The orbit data is extracted from the following two-line orbital elements,

1 10541U 77123B   20269.61524943 -.00000006 +00000-0 +26714-5 0  9996
2 10541 075.8386 022.3898 0299610 040.1374 322.1479 13.88966210166205
Epoch (UTC): 25 September 2020 14:45:57
Eccentricity: 0.0299610
inclination: 75.8386°
perigee height: 713 km
apogee height: 1151 km
right ascension of ascending node: 22.3898°
argument of perigee: 40.1374°
revolutions per day: 13.88966210
mean anomaly at epoch: 322.1479°
orbit number at epoch: 16620

The dashed part of the orbit path shows where the satellite is in the earth's shadow,  

DLR